Terminal Aerodrome Forecast
Issued by NWS Omaha/Valley, NE

Home | Current Version | Previous Version | Text Only | Print | Product List | Glossary On
Versions: 1 2 3 4 5 6 7 8 9 10 11 12 13 14 15 16 17 18 19 20 21 22 23 24 25 26 27 28 29 30 31 32 33 34 35 36 37 38 39 40 41 42 43 44 45
000
FTUS43 KOAX 251720
TAFOFK
TAF
KOFK 251720Z 2518/2618 17009KT P6SM SCT050 SCT150
     FM260100 15007KT P6SM BKN100
     FM261200 19005KT 4SM BR BKN250
     FM261400 VRB04KT P6SM SKC=

USA.gov is the U.S. government's official web portal to all federal, state and local government web resources and services.